STARLINK-32257 (62171 NORAD) Tracking and Keplerian Element Data

This shows tracking and keplerian element data for the satellite.

Feedback or suggestion? Click here.




ElementValue
Catalog62171
NameSTARLINK-32257
Epoch Orbit582
Epoch Day34.83335648
Epoch Year2025
RAAN90.3866
Inclination69.9994
Eccentricity0.0003451
Argument of Perigee275.192
Mean Anonmoly78.3038
Mean Motion15.22916258
Decay Rate-0.01400796
L11 62171U 24225J 25034.83335648 -.01400796 00000+0 -65705-1 0 9998
L22 62171 69.9994 90.3866 0003451 275.1920 78.3038 15.22916258 5821



Live tracking and technical data element details for STARLINK-32257 (NORAD 62171). STARLINK-32257 can be tracked NOW for your location showing map with azimuth and elevation plus other details from your city location.







IsCatalogInMostPopularTable: catalog: 62171, numindb: 15
Update: records affected: 1



GetName: 62171 STARLINK-32257

Hit Count: updated at: Mon, 19 May 2025 02:27:57 GMT